FHY9401 LTAN-OEJN

Flight info

Callsign FHY9401
Flight time 2h 49m
Altitude 35000
Route HISAR UW77 AYT DCT RASDA DCT NABED DCT MUVOL
Aircraft A320/M-SDE3FGHIRWY/LB1

Departure

Time 2026-05-08 03:48
Airport Konya Airport (LTAN)

Arrival

Time 2026-05-08 06:38
Airport King Abdulaziz International Airport (OEJN)
Time Latitude Longitude Altitude Speed Heading
2026-05-08 03:36 37.98595 32.57595 3388 ft 0 kts 110°
2026-05-08 03:40 37.98600 32.57580 3388 ft 3 kts 107°
2026-05-08 03:40 37.98605 32.57556 3388 ft 3 kts 99°
2026-05-08 03:40 37.98607 32.57530 3388 ft 3 kts 90°
2026-05-08 03:41 37.98606 32.57508 3388 ft 1 kts 83°
2026-05-08 03:41 37.98606 32.57506 3388 ft 0 kts 82°
2026-05-08 03:43 37.98607 32.57510 3388 ft 1 kts 75°
2026-05-08 03:43 37.98621 32.57525 3388 ft 5 kts 26°
2026-05-08 03:44 37.98659 32.57539 3388 ft 8 kts 16°
2026-05-08 03:44 37.98724 32.57563 3389 ft 12 kts 13°
2026-05-08 03:44 37.98808 32.57578 3389 ft 12 kts 13°
2026-05-08 03:44 37.98893 32.57584 3390 ft 13 kts 338°
2026-05-08 03:45 37.98958 32.57506 3391 ft 13 kts 309°
2026-05-08 03:45 37.99023 32.57409 3391 ft 15 kts 310°
2026-05-08 03:45 37.99094 32.57306 3391 ft 16 kts 311°
2026-05-08 03:45 37.99167 32.57199 3392 ft 17 kts 310°
2026-05-08 03:46 37.99243 32.57083 3392 ft 18 kts 302°
2026-05-08 03:46 37.99286 32.56932 3392 ft 19 kts 288°
2026-05-08 03:46 37.99327 32.56766 3390 ft 20 kts 286°
2026-05-08 03:46 37.99365 32.56610 3392 ft 18 kts 287°
2026-05-08 03:47 37.99369 32.56504 3393 ft 10 kts 227°
2026-05-08 03:47 37.99297 32.56473 3392 ft 12 kts 197°
2026-05-08 03:47 37.99112 32.56404 3390 ft 59 kts 196°
2026-05-08 03:47 37.98497 32.56170 3381 ft 122 kts 197°
2026-05-08 03:48 37.97517 32.55800 3375 ft 170 kts 197°
2026-05-08 03:48 37.96353 32.55365 3934 ft 170 kts 197°
2026-05-08 03:48 37.95229 32.54948 4662 ft 168 kts 197°
2026-05-08 03:48 37.94082 32.54544 5208 ft 179 kts 196°
2026-05-08 03:49 37.92885 32.53972 5355 ft 197 kts 219°
2026-05-08 03:49 37.92051 32.52540 5497 ft 214 kts 255°
2026-05-08 03:49 37.92023 32.50600 5644 ft 233 kts 289°
2026-05-08 03:49 37.92836 32.48751 5999 ft 244 kts 308°
2026-05-08 03:50 37.93891 32.47076 6819 ft 242 kts 311°
2026-05-08 03:50 37.94964 32.45413 7538 ft 244 kts 311°
2026-05-08 03:50 37.96040 32.43742 8244 ft 245 kts 311°
2026-05-08 03:50 37.97109 32.42075 8948 ft 247 kts 311°
2026-05-08 03:51 37.98197 32.40370 9642 ft 251 kts 311°
2026-05-08 03:51 37.99347 32.38567 9905 ft 273 kts 310°
2026-05-08 03:51 38.00345 32.36442 10213 ft 294 kts 290°
2026-05-08 03:51 38.00806 32.33791 10346 ft 318 kts 283°
2026-05-08 03:52 38.01206 32.30933 10469 ft 339 kts 282°
2026-05-08 03:52 38.01614 32.27894 10593 ft 359 kts 282°
2026-05-08 03:52 38.02029 32.24762 10932 ft 369 kts 281°
2026-05-08 03:52 38.02459 32.21530 11494 ft 373 kts 281°
2026-05-08 03:53 38.02899 32.18275 12098 ft 375 kts 281°
2026-05-08 03:53 38.03345 32.15012 12691 ft 377 kts 281°
2026-05-08 03:53 38.03799 32.11718 13295 ft 380 kts 281°
2026-05-08 03:53 38.04254 32.08405 13880 ft 382 kts 281°
2026-05-08 03:54 38.04711 32.05069 14440 ft 385 kts 281°
2026-05-08 03:54 38.05164 32.01750 14960 ft 387 kts 281°
2026-05-08 03:54 38.05625 31.98370 15493 ft 389 kts 281°
2026-05-08 03:54 38.06088 31.94976 16030 ft 391 kts 281°
2026-05-08 03:55 38.06554 31.91553 16571 ft 394 kts 281°
2026-05-08 03:55 38.07020 31.88111 17106 ft 396 kts 282°
2026-05-08 03:55 38.07486 31.84659 17625 ft 398 kts 282°
2026-05-08 03:55 38.07955 31.81173 18152 ft 401 kts 281°
2026-05-08 03:56 38.08416 31.77715 18638 ft 403 kts 281°
2026-05-08 03:56 38.08886 31.74193 19069 ft 406 kts 281°
2026-05-08 03:56 38.09359 31.70635 19518 ft 408 kts 281°
2026-05-08 03:56 38.09834 31.67069 19953 ft 410 kts 281°
2026-05-08 03:57 38.10145 31.63485 20377 ft 415 kts 272°
2026-05-08 03:57 38.09829 31.59821 20780 ft 421 kts 259°
2026-05-08 03:57 38.08839 31.56302 21154 ft 427 kts 246°
2026-05-08 03:57 38.07197 31.53118 21552 ft 435 kts 232°
2026-05-08 03:58 38.04976 31.50470 21929 ft 441 kts 219°
2026-05-08 03:58 38.02335 31.48533 22285 ft 447 kts 208°
2026-05-08 03:58 37.99506 31.46828 22648 ft 449 kts 208°
2026-05-08 03:58 37.96668 31.45128 22985 ft 451 kts 208°
2026-05-08 03:59 37.93820 31.43425 23309 ft 453 kts 208°
2026-05-08 03:59 37.90957 31.41709 23618 ft 455 kts 208°
2026-05-08 03:59 37.88079 31.39984 23908 ft 457 kts 208°
2026-05-08 03:59 37.85236 31.38283 24220 ft 457 kts 208°
2026-05-08 04:00 37.82360 31.36564 24597 ft 456 kts 208°
2026-05-08 04:00 37.79494 31.34852 24970 ft 455 kts 208°
2026-05-08 04:00 37.76628 31.33142 25340 ft 454 kts 208°
2026-05-08 04:00 37.73773 31.31438 25690 ft 454 kts 209°
2026-05-08 04:01 37.70914 31.29729 26067 ft 453 kts 209°
2026-05-08 04:01 37.68063 31.28028 26463 ft 453 kts 209°
2026-05-08 04:01 37.65242 31.26348 26834 ft 452 kts 209°
2026-05-08 04:01 37.62394 31.24650 27249 ft 452 kts 209°
2026-05-08 04:02 37.59543 31.22955 27614 ft 452 kts 210°
2026-05-08 04:02 37.56686 31.21262 27956 ft 453 kts 210°
2026-05-08 04:02 37.53818 31.19567 28331 ft 454 kts 210°
2026-05-08 04:02 37.50990 31.17900 28705 ft 454 kts 210°
2026-05-08 04:03 37.48130 31.16213 29128 ft 454 kts 210°
2026-05-08 04:03 37.42410 31.12827 29878 ft 454 kts 210°
2026-05-08 04:03 37.39554 31.11134 30274 ft 453 kts 211°
2026-05-08 04:04 37.36734 31.09462 30593 ft 453 kts 211°
2026-05-08 04:04 37.33897 31.07724 30958 ft 452 kts 213°
2026-05-08 04:04 37.31110 31.05896 31323 ft 450 kts 214°
2026-05-08 04:04 37.28358 31.04010 31686 ft 449 kts 216°
2026-05-08 04:05 37.25626 31.02098 32047 ft 449 kts 216°
2026-05-08 04:05 37.22929 31.00214 32404 ft 449 kts 216°
2026-05-08 04:05 37.20183 30.98319 32726 ft 450 kts 216°
2026-05-08 04:05 37.17429 30.96439 33049 ft 450 kts 216°
2026-05-08 04:06 37.14664 30.94572 33357 ft 450 kts 217°
2026-05-08 04:06 37.11902 30.92718 33635 ft 451 kts 217°
2026-05-08 04:06 37.09165 30.90891 33949 ft 451 kts 217°
2026-05-08 04:06 37.06391 30.89042 34230 ft 451 kts 218°
2026-05-08 04:07 37.03612 30.87185 34408 ft 453 kts 218°
2026-05-08 04:07 37.00823 30.85313 34597 ft 454 kts 218°
2026-05-08 04:07 36.98031 30.83436 34798 ft 455 kts 218°
2026-05-08 04:07 36.95199 30.81610 35018 ft 461 kts 213°
2026-05-08 04:08 36.92162 30.80294 35121 ft 477 kts 201°
2026-05-08 04:08 36.88823 30.79660 35143 ft 494 kts 190°
2026-05-08 04:08 36.85328 30.79713 35133 ft 507 kts 183°
2026-05-08 04:08 36.81788 30.79937 35140 ft 512 kts 184°
2026-05-08 04:09 36.74594 30.80248 35136 ft 520 kts 185°
2026-05-08 04:09 36.67373 30.80501 35133 ft 521 kts 185°
2026-05-08 04:10 36.60087 30.80784 35131 ft 524 kts 184°
2026-05-08 04:10 36.52823 30.81096 35128 ft 525 kts 184°
2026-05-08 04:11 36.45508 30.81423 35130 ft 525 kts 184°
2026-05-08 04:11 36.38234 30.81731 35133 ft 525 kts 184°
2026-05-08 04:12 36.30906 30.82029 35136 ft 525 kts 184°
2026-05-08 04:12 36.23582 30.82339 35138 ft 526 kts 184°
2026-05-08 04:13 36.16305 30.82642 35110 ft 527 kts 184°
2026-05-08 04:13 36.08952 30.82951 35115 ft 528 kts 184°
2026-05-08 04:14 36.01648 30.83260 35116 ft 528 kts 184°
2026-05-08 04:14 35.94285 30.83565 35122 ft 529 kts 184°
2026-05-08 04:15 35.86905 30.83871 35130 ft 530 kts 184°
2026-05-08 04:15 35.79525 30.84178 35121 ft 530 kts 184°
2026-05-08 04:16 35.72162 30.84482 35130 ft 531 kts 184°
2026-05-08 04:16 35.64806 30.84784 35135 ft 531 kts 184°
2026-05-08 04:17 35.57431 30.85091 35130 ft 531 kts 184°
2026-05-08 04:17 35.50026 30.85399 35137 ft 532 kts 184°
2026-05-08 04:18 35.42615 30.85704 35134 ft 532 kts 184°
2026-05-08 04:18 35.35248 30.86004 35122 ft 532 kts 184°
2026-05-08 04:19 35.27821 30.86300 35133 ft 532 kts 184°
2026-05-08 04:19 35.20467 30.86606 35139 ft 532 kts 184°
2026-05-08 04:20 35.13056 30.86912 35129 ft 532 kts 184°
2026-05-08 04:20 35.05691 30.87211 35136 ft 532 kts 184°
2026-05-08 04:21 34.98280 30.87509 35142 ft 532 kts 184°
2026-05-08 04:21 34.90867 30.87811 35130 ft 532 kts 184°
2026-05-08 04:22 34.83464 30.88113 35148 ft 532 kts 184°
2026-05-08 04:22 34.76087 30.88419 35152 ft 532 kts 184°
2026-05-08 04:23 34.68681 30.88717 35138 ft 532 kts 184°
2026-05-08 04:23 34.61324 30.89003 35146 ft 531 kts 184°
2026-05-08 04:24 34.53929 30.89297 35157 ft 531 kts 184°
2026-05-08 04:24 34.46528 30.89604 35164 ft 531 kts 183°
2026-05-08 04:25 34.39149 30.89908 35148 ft 532 kts 184°
2026-05-08 04:25 34.31730 30.90194 35147 ft 532 kts 184°
2026-05-08 04:26 34.24362 30.90479 35150 ft 532 kts 184°
2026-05-08 04:26 34.16947 30.90788 35153 ft 532 kts 183°
2026-05-08 04:27 34.09533 30.91092 35156 ft 532 kts 184°
2026-05-08 04:27 34.02163 30.91378 35159 ft 532 kts 184°
2026-05-08 04:28 33.94739 30.91662 35149 ft 532 kts 183°
2026-05-08 04:28 33.87372 30.91959 35155 ft 532 kts 183°
2026-05-08 04:29 33.79955 30.92264 35152 ft 532 kts 183°
2026-05-08 04:29 33.72539 30.92558 35139 ft 532 kts 183°
2026-05-08 04:30 33.65176 30.92836 35145 ft 532 kts 183°
2026-05-08 04:30 33.57756 30.93116 35148 ft 532 kts 183°
2026-05-08 04:31 33.50389 30.93415 35138 ft 532 kts 183°
2026-05-08 04:31 33.42957 30.93720 35147 ft 532 kts 183°
2026-05-08 04:32 33.35586 30.94012 35148 ft 532 kts 183°
2026-05-08 04:32 33.28180 30.94299 35140 ft 532 kts 183°
2026-05-08 04:33 33.20771 30.94578 35148 ft 532 kts 183°
2026-05-08 04:33 33.13409 30.94863 35153 ft 532 kts 183°
2026-05-08 04:34 33.06013 30.95960 35154 ft 538 kts 171°
2026-05-08 04:34 32.98704 30.97760 35151 ft 537 kts 171°
2026-05-08 04:35 32.92597 30.99254 35150 ft 537 kts 171°
2026-05-08 04:35 32.84066 31.01329 35132 ft 537 kts 171°
2026-05-08 04:36 32.77967 31.02811 35139 ft 537 kts 171°
2026-05-08 04:36 32.70628 31.04594 35144 ft 537 kts 171°
2026-05-08 04:37 32.63287 31.06371 35147 ft 538 kts 171°
2026-05-08 04:37 32.55991 31.08133 35141 ft 538 kts 171°
2026-05-08 04:38 32.48655 31.09908 35147 ft 538 kts 171°
2026-05-08 04:38 32.41308 31.11681 35152 ft 538 kts 171°
2026-05-08 04:39 32.34012 31.13440 35142 ft 538 kts 171°
2026-05-08 04:39 32.26666 31.15208 35150 ft 537 kts 171°
2026-05-08 04:40 32.19341 31.16965 35147 ft 537 kts 171°
2026-05-08 04:40 32.12000 31.18725 35147 ft 537 kts 171°
2026-05-08 04:41 32.04717 31.20465 35132 ft 536 kts 171°
2026-05-08 04:41 31.97390 31.22218 35138 ft 536 kts 171°
2026-05-08 04:42 31.90110 31.23958 35137 ft 536 kts 171°
2026-05-08 04:42 31.82783 31.25695 35148 ft 537 kts 171°
2026-05-08 04:43 31.75454 31.27435 35128 ft 537 kts 171°
2026-05-08 04:43 31.68155 31.29180 35126 ft 538 kts 171°
2026-05-08 04:44 31.60801 31.30927 35133 ft 538 kts 171°
2026-05-08 04:44 31.53485 31.32655 35130 ft 538 kts 171°
2026-05-08 04:45 31.46117 31.34390 35135 ft 538 kts 171°
2026-05-08 04:45 31.38812 31.36113 35136 ft 538 kts 171°
2026-05-08 04:46 31.31459 31.37836 35130 ft 538 kts 171°
2026-05-08 04:46 31.24103 31.39569 35133 ft 538 kts 171°
2026-05-08 04:47 31.16797 31.41286 35134 ft 538 kts 171°
2026-05-08 04:47 31.09450 31.43006 35134 ft 538 kts 171°
2026-05-08 04:48 31.02084 31.44725 35135 ft 538 kts 171°
2026-05-08 04:48 30.94773 31.46435 35133 ft 538 kts 171°
2026-05-08 04:49 30.87415 31.48153 35127 ft 538 kts 171°
2026-05-08 04:49 30.80098 31.49861 35126 ft 538 kts 170°
2026-05-08 04:50 30.72745 31.51574 35121 ft 538 kts 170°
2026-05-08 04:50 30.65440 31.53265 35136 ft 538 kts 170°
2026-05-08 04:51 30.58088 31.54964 35129 ft 539 kts 170°
2026-05-08 04:51 30.50723 31.56675 35121 ft 539 kts 170°
2026-05-08 04:52 30.43408 31.58375 35120 ft 539 kts 170°
2026-05-08 04:52 30.36053 31.60064 35122 ft 539 kts 170°
2026-05-08 04:53 30.28687 31.61759 35119 ft 539 kts 170°
2026-05-08 04:53 30.21372 31.63443 35106 ft 539 kts 170°
2026-05-08 04:54 30.14014 31.65137 35113 ft 539 kts 170°
2026-05-08 04:54 30.06658 31.66819 35113 ft 539 kts 170°
2026-05-08 04:55 29.99335 31.68498 35100 ft 538 kts 170°
2026-05-08 04:55 29.91968 31.70186 35101 ft 538 kts 170°
2026-05-08 04:56 29.84609 31.71862 35099 ft 538 kts 170°
2026-05-08 04:56 29.77269 31.73534 35092 ft 537 kts 170°
2026-05-08 04:57 29.69962 31.75198 35097 ft 537 kts 170°
2026-05-08 04:57 29.62618 31.76871 35089 ft 537 kts 170°
2026-05-08 04:58 29.55334 31.78514 35092 ft 536 kts 170°
2026-05-08 04:58 29.48003 31.80168 35090 ft 536 kts 170°
2026-05-08 04:59 29.40663 31.81832 35077 ft 537 kts 170°
2026-05-08 04:59 29.33359 31.83488 35075 ft 537 kts 170°
2026-05-08 05:00 29.26001 31.85146 35070 ft 538 kts 170°
2026-05-08 05:00 29.18703 31.86792 35067 ft 538 kts 170°
2026-05-08 05:01 29.11332 31.88447 35068 ft 538 kts 170°
2026-05-08 05:01 29.04022 31.90086 35070 ft 538 kts 170°
2026-05-08 05:02 28.96670 31.91738 35055 ft 538 kts 170°
2026-05-08 05:02 28.89347 31.93381 35062 ft 538 kts 170°
2026-05-08 05:03 28.81994 31.95023 35066 ft 537 kts 170°
2026-05-08 05:03 28.74653 31.96665 35048 ft 537 kts 169°
2026-05-08 05:04 28.67331 31.98294 35058 ft 537 kts 170°
2026-05-08 05:04 28.59971 31.99930 35064 ft 537 kts 169°
2026-05-08 05:05 28.52626 32.01569 35064 ft 537 kts 169°
2026-05-08 05:05 28.45311 32.03199 35051 ft 537 kts 169°
2026-05-08 05:06 28.37960 32.04833 35057 ft 537 kts 170°
2026-05-08 05:06 28.30658 32.06441 35064 ft 537 kts 170°
2026-05-08 05:07 28.23307 32.08062 35078 ft 537 kts 169°
2026-05-08 05:07 28.15990 32.09683 35055 ft 538 kts 169°
2026-05-08 05:08 28.08623 32.11310 35055 ft 539 kts 169°
2026-05-08 05:08 28.01241 32.12934 35060 ft 539 kts 169°
2026-05-08 05:09 27.93862 32.14557 35047 ft 540 kts 169°
2026-05-08 05:09 27.86529 32.16163 35060 ft 539 kts 169°
2026-05-08 05:10 27.75453 32.18593 35064 ft 539 kts 169°
2026-05-08 05:11 27.68123 32.20197 35050 ft 539 kts 170°
2026-05-08 05:11 27.60751 32.21804 35055 ft 539 kts 170°
2026-05-08 05:12 27.53379 32.23416 35058 ft 539 kts 170°
2026-05-08 05:12 27.46042 32.25019 35057 ft 538 kts 170°
2026-05-08 05:13 27.38670 32.26613 35049 ft 538 kts 169°
2026-05-08 05:13 27.31675 32.29375 35038 ft 536 kts 149°
2026-05-08 05:14 27.25670 32.34214 35043 ft 527 kts 131°
2026-05-08 05:14 27.20800 32.40244 35044 ft 523 kts 126°
2026-05-08 05:15 27.15967 32.46374 35039 ft 524 kts 126°
2026-05-08 05:15 27.11126 32.52506 35026 ft 524 kts 126°
2026-05-08 05:16 27.06301 32.58610 35007 ft 525 kts 126°
2026-05-08 05:16 27.01439 32.64755 35045 ft 525 kts 126°
2026-05-08 05:17 26.96593 32.70879 35025 ft 524 kts 126°
2026-05-08 05:17 26.91740 32.76992 35016 ft 524 kts 126°
2026-05-08 05:18 26.86912 32.83068 35016 ft 524 kts 126°
2026-05-08 05:18 26.82051 32.89173 35028 ft 524 kts 127°
2026-05-08 05:19 26.77199 32.95265 35014 ft 523 kts 127°
2026-05-08 05:19 26.72382 33.01303 35008 ft 522 kts 127°
2026-05-08 05:20 26.67528 33.07387 34984 ft 522 kts 127°
2026-05-08 05:20 26.62713 33.13401 34985 ft 522 kts 127°
2026-05-08 05:21 26.57869 33.19444 35004 ft 521 kts 128°
2026-05-08 05:21 26.53039 33.25457 35001 ft 519 kts 128°
2026-05-08 05:22 26.48244 33.31425 34995 ft 517 kts 128°
2026-05-08 05:22 26.43439 33.37410 34987 ft 517 kts 128°
2026-05-08 05:23 26.38627 33.43389 34982 ft 516 kts 128°
2026-05-08 05:23 26.33846 33.49310 34978 ft 516 kts 128°
2026-05-08 05:24 26.29035 33.55267 34975 ft 515 kts 128°
2026-05-08 05:24 26.24259 33.61182 34968 ft 515 kts 128°
2026-05-08 05:25 26.19448 33.67130 34966 ft 515 kts 128°
2026-05-08 05:25 26.14639 33.73049 34986 ft 514 kts 129°
2026-05-08 05:26 26.09874 33.78897 34985 ft 512 kts 129°
2026-05-08 05:26 26.05104 33.84766 34975 ft 510 kts 129°
2026-05-08 05:27 26.01144 33.89643 34973 ft 510 kts 129°
2026-05-08 05:27 25.96400 33.95474 34982 ft 509 kts 129°
2026-05-08 05:28 25.91637 34.01310 34956 ft 508 kts 131°
2026-05-08 05:28 25.86880 34.07124 34956 ft 507 kts 131°
2026-05-08 05:29 25.82157 34.12892 34949 ft 507 kts 131°
2026-05-08 05:29 25.77407 34.18698 34949 ft 506 kts 131°
2026-05-08 05:30 25.72693 34.24460 34956 ft 506 kts 131°
2026-05-08 05:30 25.67938 34.30244 34951 ft 505 kts 132°
2026-05-08 05:31 25.63223 34.35960 34943 ft 505 kts 132°
2026-05-08 05:31 25.58479 34.41714 34943 ft 505 kts 132°
2026-05-08 05:32 25.53739 34.47472 34919 ft 505 kts 132°
2026-05-08 05:32 25.49009 34.53217 34937 ft 504 kts 133°
2026-05-08 05:33 25.44301 34.58914 34940 ft 504 kts 133°
2026-05-08 05:33 25.39564 34.64629 34939 ft 503 kts 133°
2026-05-08 05:34 25.34827 34.70338 34940 ft 503 kts 133°
2026-05-08 05:34 25.30095 34.76039 34941 ft 502 kts 134°
2026-05-08 05:35 25.25393 34.81698 34946 ft 502 kts 134°
2026-05-08 05:35 25.20661 34.87388 34944 ft 501 kts 134°
2026-05-08 05:36 25.15972 34.93034 34925 ft 501 kts 134°
2026-05-08 05:36 25.11256 34.98703 34935 ft 501 kts 135°
2026-05-08 05:37 25.06534 35.04357 34940 ft 500 kts 135°
2026-05-08 05:37 25.01806 35.10005 34945 ft 500 kts 135°
2026-05-08 05:38 24.97117 35.15616 34942 ft 499 kts 135°
2026-05-08 05:38 24.92401 35.21246 34939 ft 499 kts 135°
2026-05-08 05:39 24.87709 35.26835 34942 ft 499 kts 136°
2026-05-08 05:39 24.82985 35.32440 34948 ft 498 kts 136°
2026-05-08 05:40 24.78269 35.38046 34912 ft 498 kts 136°
2026-05-08 05:40 24.73586 35.43624 34926 ft 498 kts 136°
2026-05-08 05:41 24.68859 35.49230 34928 ft 499 kts 136°
2026-05-08 05:41 24.64160 35.54802 34930 ft 498 kts 137°
2026-05-08 05:42 24.59435 35.60392 34929 ft 498 kts 137°
2026-05-08 05:42 24.54735 35.65942 34929 ft 498 kts 137°
2026-05-08 05:43 24.50006 35.71527 34928 ft 498 kts 137°
2026-05-08 05:43 24.45293 35.77089 34913 ft 497 kts 137°
2026-05-08 05:44 24.40577 35.82652 34873 ft 498 kts 137°
2026-05-08 05:44 24.35869 35.88197 34881 ft 500 kts 137°
2026-05-08 05:45 24.31104 35.93791 34889 ft 501 kts 137°
2026-05-08 05:45 24.26329 35.99398 34898 ft 502 kts 137°
2026-05-08 05:46 24.21567 36.04972 34903 ft 503 kts 137°
2026-05-08 05:46 24.16779 36.10579 34902 ft 503 kts 137°
2026-05-08 05:47 24.12024 36.16141 34908 ft 503 kts 137°
2026-05-08 05:47 24.07227 36.21741 34913 ft 503 kts 137°
2026-05-08 05:48 24.02428 36.27344 34863 ft 504 kts 138°
2026-05-08 05:48 23.97653 36.32911 34885 ft 505 kts 138°
2026-05-08 05:49 23.92840 36.38519 34900 ft 505 kts 138°
2026-05-08 05:49 23.88024 36.44114 34908 ft 505 kts 139°
2026-05-08 05:50 23.83199 36.49715 34914 ft 505 kts 138°
2026-05-08 05:50 23.78392 36.55299 34918 ft 504 kts 139°
2026-05-08 05:51 23.73609 36.60837 34922 ft 503 kts 139°
2026-05-08 05:51 23.68805 36.66393 34920 ft 502 kts 139°
2026-05-08 05:52 23.64043 36.71909 34912 ft 501 kts 140°
2026-05-08 05:52 23.59263 36.77441 34915 ft 499 kts 140°
2026-05-08 05:53 23.54491 36.82946 34926 ft 497 kts 140°
2026-05-08 05:53 23.49770 36.88380 34927 ft 496 kts 140°
2026-05-08 05:54 23.45001 36.93869 34925 ft 495 kts 140°
2026-05-08 05:54 23.40292 36.99285 34910 ft 494 kts 141°
2026-05-08 05:55 23.35567 37.04712 34920 ft 492 kts 141°
2026-05-08 05:55 23.30878 37.10094 34921 ft 491 kts 141°
2026-05-08 05:56 23.26177 37.15476 34902 ft 489 kts 141°
2026-05-08 05:56 23.21518 37.20803 34916 ft 487 kts 141°
2026-05-08 05:57 23.16855 37.26139 34914 ft 485 kts 142°
2026-05-08 05:57 23.12234 37.31427 34916 ft 484 kts 142°
2026-05-08 05:58 23.07586 37.36725 34911 ft 483 kts 142°
2026-05-08 05:58 23.02945 37.41997 34907 ft 482 kts 142°
2026-05-08 05:59 22.98343 37.47229 34901 ft 481 kts 142°
2026-05-08 05:59 22.93720 37.52497 34904 ft 479 kts 142°
2026-05-08 06:00 22.89122 37.57729 34901 ft 477 kts 142°
2026-05-08 06:00 22.84570 37.62899 34904 ft 475 kts 142°
2026-05-08 06:01 22.79994 37.68079 34902 ft 473 kts 142°
2026-05-08 06:01 22.75471 37.73207 34890 ft 472 kts 142°
2026-05-08 06:02 22.70932 37.78346 34897 ft 471 kts 142°
2026-05-08 06:02 22.66399 37.83464 34895 ft 470 kts 142°
2026-05-08 06:03 22.61902 37.88533 34897 ft 469 kts 143°
2026-05-08 06:03 22.59490 37.90829 34887 ft 455 kts 154°
2026-05-08 06:03 22.56893 37.92783 34890 ft 454 kts 154°
2026-05-08 06:04 22.51696 37.96664 34880 ft 453 kts 154°
2026-05-08 06:04 22.46496 38.00538 34885 ft 453 kts 154°
2026-05-08 06:05 22.41312 38.04407 34887 ft 452 kts 154°
2026-05-08 06:05 22.38714 38.06344 34693 ft 452 kts 154°
2026-05-08 06:05 22.36159 38.08249 34460 ft 452 kts 154°
2026-05-08 06:05 22.33569 38.10177 34229 ft 452 kts 154°
2026-05-08 06:06 22.30974 38.12105 34000 ft 452 kts 154°
2026-05-08 06:06 22.28382 38.14029 33763 ft 452 kts 153°
2026-05-08 06:06 22.25775 38.15962 33494 ft 453 kts 153°
2026-05-08 06:06 22.23203 38.17872 33207 ft 455 kts 153°
2026-05-08 06:07 22.20579 38.19822 32330 ft 459 kts 153°
2026-05-08 06:07 22.17924 38.21794 31387 ft 464 kts 153°
2026-05-08 06:07 22.15239 38.23786 30498 ft 469 kts 152°
2026-05-08 06:07 22.12532 38.25790 29412 ft 476 kts 152°
2026-05-08 06:08 22.09809 38.27867 28413 ft 484 kts 146°
2026-05-08 06:08 22.07502 38.30462 28176 ft 480 kts 134°
2026-05-08 06:08 22.05402 38.33277 27236 ft 486 kts 133°
2026-05-08 06:08 22.03250 38.36151 25956 ft 497 kts 133°
2026-05-08 06:09 22.01060 38.39079 24702 ft 506 kts 132°
2026-05-08 06:09 21.98840 38.42062 23494 ft 513 kts 131°
2026-05-08 06:09 21.96633 38.45039 22146 ft 517 kts 131°
2026-05-08 06:09 21.94395 38.48064 21324 ft 507 kts 131°
2026-05-08 06:10 21.92244 38.50981 20103 ft 490 kts 131°
2026-05-08 06:10 21.90162 38.53801 19159 ft 470 kts 132°
2026-05-08 06:10 21.88162 38.56503 18243 ft 452 kts 132°
2026-05-08 06:10 21.86235 38.59101 17258 ft 436 kts 132°
2026-05-08 06:11 21.84358 38.61622 16399 ft 435 kts 132°
2026-05-08 06:11 21.82461 38.64159 15518 ft 434 kts 132°
2026-05-08 06:11 21.80570 38.66686 14661 ft 430 kts 132°
2026-05-08 06:11 21.78716 38.69170 13849 ft 419 kts 132°
2026-05-08 06:12 21.76931 38.71570 13042 ft 403 kts 132°
2026-05-08 06:12 21.75197 38.73901 12357 ft 394 kts 132°
2026-05-08 06:12 21.73501 38.76178 11794 ft 388 kts 131°
2026-05-08 06:12 21.71837 38.78404 11296 ft 381 kts 131°
2026-05-08 06:13 21.70211 38.80577 11174 ft 364 kts 132°
2026-05-08 06:13 21.68658 38.82651 11050 ft 348 kts 132°
2026-05-08 06:13 21.67166 38.84645 10936 ft 334 kts 132°
2026-05-08 06:13 21.65736 38.86557 10809 ft 322 kts 131°
2026-05-08 06:14 21.64373 38.88378 10694 ft 311 kts 131°
2026-05-08 06:14 21.63040 38.90156 10495 ft 303 kts 131°
2026-05-08 06:14 21.61413 38.91586 10145 ft 299 kts 151°
2026-05-08 06:14 21.59611 38.92646 9947 ft 293 kts 154°
2026-05-08 06:15 21.57815 38.93665 9638 ft 290 kts 154°
2026-05-08 06:15 21.56630 38.94330 9398 ft 290 kts 154°
2026-05-08 06:15 21.54831 38.95325 9026 ft 290 kts 154°
2026-05-08 06:15 21.52445 38.96633 8566 ft 290 kts 154°
2026-05-08 06:16 21.50657 38.97619 8251 ft 288 kts 153°
2026-05-08 06:16 21.49452 38.98282 8012 ft 288 kts 153°
2026-05-08 06:16 21.47688 38.99249 7682 ft 287 kts 154°
2026-05-08 06:16 21.45906 39.00230 7349 ft 286 kts 154°
2026-05-08 06:17 21.42358 39.02173 6695 ft 286 kts 154°
2026-05-08 06:17 21.40587 39.03142 6371 ft 285 kts 154°
2026-05-08 06:17 21.38816 39.04104 6052 ft 284 kts 154°
2026-05-08 06:18 21.37039 39.05061 5698 ft 285 kts 154°
2026-05-08 06:18 21.35285 39.06003 5375 ft 285 kts 152°
2026-05-08 06:18 21.33730 39.07302 4995 ft 284 kts 128°
2026-05-08 06:18 21.32787 39.09133 4712 ft 279 kts 104°
2026-05-08 06:19 21.32585 39.11160 4470 ft 270 kts 79°
2026-05-08 06:19 21.33099 39.13047 4239 ft 259 kts 59°
2026-05-08 06:19 21.33994 39.14703 4007 ft 253 kts 58°
2026-05-08 06:19 21.34868 39.16307 3881 ft 243 kts 57°
2026-05-08 06:20 21.35694 39.17828 3761 ft 233 kts 57°
2026-05-08 06:20 21.36495 39.19302 3642 ft 224 kts 56°
2026-05-08 06:20 21.37275 39.20740 3523 ft 222 kts 57°
2026-05-08 06:20 21.38049 39.22168 3414 ft 220 kts 56°
2026-05-08 06:21 21.38814 39.23578 3295 ft 218 kts 57°
2026-05-08 06:21 21.39585 39.24981 3176 ft 217 kts 52°
2026-05-08 06:21 21.40605 39.26141 3081 ft 213 kts 34°
2026-05-08 06:21 21.41896 39.26840 3004 ft 211 kts 15°
2026-05-08 06:22 21.43343 39.27025 3008 ft 210 kts 356°
2026-05-08 06:22 21.44770 39.26667 3011 ft 213 kts 342°
2026-05-08 06:22 21.46164 39.26117 3010 ft 214 kts 342°
2026-05-08 06:22 21.47558 39.25567 3009 ft 213 kts 342°
2026-05-08 06:23 21.48946 39.25021 3009 ft 212 kts 342°
2026-05-08 06:23 21.50331 39.24476 3008 ft 212 kts 342°
2026-05-08 06:23 21.51721 39.23930 2958 ft 213 kts 342°
2026-05-08 06:23 21.53112 39.23383 2736 ft 212 kts 342°
2026-05-08 06:24 21.54487 39.22842 2481 ft 209 kts 342°
2026-05-08 06:24 21.55839 39.22310 2227 ft 205 kts 341°
2026-05-08 06:24 21.57161 39.21789 1965 ft 197 kts 341°
2026-05-08 06:24 21.58394 39.21303 1721 ft 186 kts 342°
2026-05-08 06:25 21.59587 39.20834 1490 ft 180 kts 342°
2026-05-08 06:25 21.60722 39.20387 1285 ft 167 kts 342°
2026-05-08 06:25 21.61777 39.19971 1044 ft 152 kts 342°
2026-05-08 06:25 21.62727 39.19597 878 ft 145 kts 342°
2026-05-08 06:26 21.63662 39.19229 710 ft 141 kts 339°
2026-05-08 06:26 21.64576 39.18870 536 ft 139 kts 340°
2026-05-08 06:26 21.65482 39.18511 336 ft 139 kts 339°
2026-05-08 06:26 21.66369 39.18162 172 ft 136 kts 339°
2026-05-08 06:27 21.67235 39.17819 48 ft 121 kts 339°
2026-05-08 06:27 21.68014 39.17488 158 ft 131 kts 338°
2026-05-08 06:27 21.68949 39.17120 612 ft 156 kts 342°
2026-05-08 06:27 21.69991 39.16698 1350 ft 159 kts 340°
2026-05-08 06:28 21.71012 39.16248 2074 ft 165 kts 339°
2026-05-08 06:28 21.72155 39.15868 2291 ft 183 kts 359°
2026-05-08 06:28 21.73399 39.16315 2512 ft 203 kts 34°
2026-05-08 06:28 21.74358 39.17501 2889 ft 216 kts 52°
2026-05-08 06:29 21.75203 39.18855 2992 ft 217 kts 54°
2026-05-08 06:29 21.76027 39.20220 3008 ft 218 kts 56°
2026-05-08 06:29 21.76491 39.21747 3007 ft 224 kts 86°
2026-05-08 06:29 21.76082 39.23376 3007 ft 232 kts 120°
2026-05-08 06:30 21.74840 39.24607 3019 ft 263 kts 148°
2026-05-08 06:30 21.73130 39.25541 3005 ft 282 kts 155°
2026-05-08 06:30 21.71291 39.26313 3004 ft 284 kts 158°
2026-05-08 06:30 21.69426 39.27038 3006 ft 284 kts 159°
2026-05-08 06:31 21.67592 39.27748 3005 ft 285 kts 159°
2026-05-08 06:31 21.65715 39.28468 3005 ft 286 kts 159°
2026-05-08 06:31 21.63839 39.29178 3006 ft 285 kts 159°
2026-05-08 06:31 21.61960 39.29890 3006 ft 286 kts 159°
2026-05-08 06:32 21.60107 39.30598 3003 ft 275 kts 159°
2026-05-08 06:32 21.58380 39.31253 3008 ft 259 kts 159°
2026-05-08 06:32 21.56723 39.31867 3010 ft 243 kts 162°
2026-05-08 06:32 21.55074 39.31934 3007 ft 238 kts 196°
2026-05-08 06:33 21.53664 39.31071 3014 ft 231 kts 231°
2026-05-08 06:33 21.52780 39.29665 2958 ft 225 kts 250°
2026-05-08 06:33 21.52356 39.28063 2954 ft 222 kts 269°
2026-05-08 06:33 21.52400 39.26432 2904 ft 215 kts 286°
2026-05-08 06:34 21.52847 39.24990 2788 ft 198 kts 302°
2026-05-08 06:34 21.53604 39.23808 2651 ft 187 kts 317°
2026-05-08 06:34 21.54577 39.22927 2458 ft 180 kts 332°
2026-05-08 06:34 21.55680 39.22374 2241 ft 171 kts 342°
2026-05-08 06:35 21.56781 39.21940 2033 ft 166 kts 342°
2026-05-08 06:35 21.57846 39.21520 1825 ft 160 kts 343°
2026-05-08 06:35 21.58877 39.21114 1632 ft 156 kts 343°
2026-05-08 06:35 21.59865 39.20725 1419 ft 149 kts 342°
2026-05-08 06:36 21.60843 39.20340 1257 ft 150 kts 341°
2026-05-08 06:36 21.61809 39.19959 1044 ft 143 kts 342°
2026-05-08 06:36 21.62725 39.19598 877 ft 141 kts 341°
2026-05-08 06:36 21.63647 39.19236 713 ft 139 kts 340°
2026-05-08 06:37 21.64545 39.18882 545 ft 137 kts 339°
2026-05-08 06:37 21.65433 39.18533 368 ft 134 kts 339°
2026-05-08 06:37 21.66315 39.18181 161 ft 137 kts 339°
2026-05-08 06:37 21.67195 39.17837 42 ft 125 kts 339°
2026-05-08 06:38 21.67879 39.17563 33 ft 82 kts 340°
2026-05-08 06:38 21.68225 39.17429 28 ft 32 kts 338°
2026-05-08 06:38 21.68361 39.17283 26 ft 22 kts 309°
2026-05-08 06:38 21.68422 39.17183 27 ft 13 kts 285°
2026-05-08 06:39 21.68369 39.17146 28 ft 6 kts 158°
2026-05-08 06:39 21.68315 39.17159 28 ft 12 kts 163°
2026-05-08 06:39 21.68205 39.17201 29 ft 22 kts 161°
2026-05-08 06:39 21.68045 39.17264 30 ft 26 kts 159°
2026-05-08 06:40 21.67922 39.17304 31 ft 13 kts 185°
2026-05-08 06:40 21.67862 39.17227 31 ft 15 kts 246°
2026-05-08 06:40 21.67819 39.17118 31 ft 16 kts 230°
2026-05-08 06:40 21.67707 39.17119 31 ft 18 kts 159°
2026-05-08 06:41 21.67584 39.17165 32 ft 20 kts 162°
2026-05-08 06:41 21.67468 39.17189 32 ft 14 kts 195°
2026-05-08 06:41 21.67401 39.17173 30 ft 10 kts 143°
2026-05-08 06:41 21.67362 39.17213 32 ft 5 kts 136°
2026-05-08 06:42 21.67355 39.17219 32 ft 0 kts 137°